Regional Weather Roundup
Issued by NWS

Home | Current Version | Previous Version | Text Only | Print | Product List | Glossary On
Versions: 1 2 3 4 5 6 7 8 9 10 11 12 13 14 15 16 17 18 19 20 21 22 23 24 25 26 27 28 29 30 31 32 33 34 35 36 37 38 39 40 41 42 43 44 45 46 47 48 49 50
000
ASUS45 KPSR 300310
RWRAZ

ARIZONA REGIONAL HOURLY WEATHER ROUNDUP
NATIONAL WEATHER SERVICE PHOENIX AZ
800 PM MST THU JAN 29 2015

NOTE: FAIR INDICATES FEW OR NO CLOUDS BELOW 12,000 FEET WITH NO
SIGNIFICANT WEATHER AND/OR OBSTRUCTIONS TO VISIBILITY.

AZZ001>003-036-300400-
NORTHWEST ARIZONA

CITY           SKY/WX    TMP DP  RH WIND       PRES   REMARKS
BULLHEAD CITY  CLOUDY    68  37  32 N14       30.02R
KINGMAN        LGT RAIN  54  39  57 E7        30.10R
$$

AZZ004>008-015-016-018-300400-
NORTH CENTRAL ARIZONA

CITY           SKY/WX    TMP DP  RH WIND       PRES   REMARKS
GRAND CANYON   LGT RAIN  39  37  92 E6        30.23R WCI  35
PRESCOTT       CLOUDY    48  42  80 SE7       30.15S
FLAGSTAFF      LGT RAIN  39  37  92 E3        30.22S
PAYSON         LGT RAIN  46  45  93 NE5       30.20S
$$

AZZ009>014-017-300400-
NORTHEAST ARIZONA

CITY           SKY/WX    TMP DP  RH WIND       PRES   REMARKS
WINSLOW        LGT RAIN  46  42  86 NW7       30.21R
SAINT JOHNS    LGT RAIN  47  44  90 E8        30.22R
WINDOW ROCK    CLOUDY    45  28  51 NE3       30.29R
SHOW LOW       LGT RAIN  41  39  93 SE5       30.23F
$$

AZZ023-300400-
GREATER PHOENIX AREA

CITY           SKY/WX    TMP DP  RH WIND       PRES   REMARKS
PHOENIX        LGT RAIN  61  58  90 E5        30.05R
BUCKEYE          N/A     59  59 100 NE3       30.04S
GLENDALE       LGT RAIN  61  61 100 N5        30.07R
LUKE AFB       LGT RAIN  60  58  94 N5        30.04R
DEER VALLEY    LGT RAIN  59  53  80 CALM      30.06S
SCOTTSDALE     LGT RAIN  60  56  86 CALM      30.07F
MESA-FALCON    CLOUDY    57  57 100 N9        30.06F
MESA-GATEWAY   CLOUDY    59  55  88 NE6       30.08S
CHANDLER       DRIZZLE   59  59 100 NE12      30.06S
$$

AZZ027-028-300400-
SOUTHWEST MARICOPA COUNTY AND PINAL COUNTY

CITY           SKY/WX    TMP DP  RH WIND       PRES   REMARKS
CASA GRANDE    CLOUDY    57  55  94 CALM      30.07R
GILA BEND      LGT RAIN  61  59  91 CALM      30.02R
$$

AZZ503-504-507>509-300400-
SOUTHEAST ARIZONA

CITY           SKY/WX    TMP DP  RH WIND       PRES   REMARKS
TUCSON         CLOUDY    59  52  77 W5        30.11R
DAVIS-MONTHAN  CLOUDY    59  50  72 NW5       30.09R
RYAN FIELD       N/A     57  54  88 W9        30.10R
NOGALES        CLOUDY    57  49  74 N3        30.12R
SIERRA VISTA   CLOUDY    57  46  67 S6        30.15R
DOUGLAS        CLOUDY    59  43  55 E15       30.15R
SAFFORD        LGT RAIN  56  45  66 E13       30.16R
$$

AZZ020-021-025-026-031-300400-
SOUTHWEST ARIZONA

CITY           SKY/WX    TMP DP  RH WIND       PRES   REMARKS
YUMA           CLOUDY    67  49  52 NE3       29.99R
$$

CAZ031-033-041-043-047-048-061-300400-
SOUTHERN CALIFORNIA

CITY           SKY/WX    TMP DP  RH WIND       PRES   REMARKS
DOWNTOWN L.A.  CLOUDY    66  47  50 CALM      30.02R
L.A. AIRPORT   CLOUDY    63  51  65 W6        30.02R
SAN DIEGO      CLOUDY    64  54  69 CALM      30.03R
BURBANK        CLOUDY    66  42  41 S3        30.02R
ONTARIO        CLOUDY    66  43  43 W9        30.04R
RIVERSIDE      LGT RAIN  67  41  38 E10       30.03R
PALM SPRINGS   CLOUDY    68  48  48 CALM      30.02R
EL CENTRO NAS  CLOUDY    65  49  56 CALM      29.98R
IMPERIAL       CLOUDY    66  50  56 CALM      29.97R
BLYTHE         CLOUDY    63  54  72 E3        29.99S
NEEDLES        CLOUDY    67  39  35 N6        30.01R
$$

NVZ020-UTZ003-300400-
SOUTHERN NEVADA-UTAH

CITY           SKY/WX    TMP DP  RH WIND       PRES   REMARKS
LAS VEGAS      CLOUDY    61  38  42 SW7       30.04S
SALT LAKE CITY CLOUDY    39  34  82 CALM      30.25F
$$

NMZ009-TXZ055-300400-
NEW MEXICO-WEST TEXAS

CITY           SKY/WX    TMP DP  RH WIND       PRES   REMARKS
ALBUQUERQUE    CLOUDY    44  20  38 E23G35    30.40R
EL PASO        CLOUDY    52  34  50 E18G24    30.35R
$$


........................KEY........................
SKY/WX - SKY CONDITION/WEATHER
TMP    - TEMPERATURE IN FAHRENHEIT
DP     - DEW POINT IN FAHRENHEIT
RH     - RELATIVE HUMIDITY IN PERCENT
WIND   - DIRECTION AND SPEED IN MILES PER HOUR (MPH)
VRB    - VARIABLE WIND DIRECTION
PRES   - MEAN SEA LEVEL PRESSURE IN INCHES OF MERCURY
         F - FALLING PRESSURE   R - RISING PRESSURE
         S - STEADY PRESSURE
VSB    - VISIBILITY IN MILES
HX     - HEAT INDEX IN FAHRENHEIT
WCI    - WIND CHILL INDEX IN FAHRENHEIT
TC     - TEMPERATURE IN CELSIUS WHICH IS ALSO KNOWN AS
         TEMPERATURE IN CENTIGRADE
AFB    - AIR FORCE BASE
         LUKE AFB IS LUKE AIR FORCE BASE
         DAVIS-MONTHAN IS DAVIS-MONTHAN AIR FORCE BASE
NAS    - NAVAL AIR STATION
         EL CENTRO NAS IS EL CENTRO NAVAL AIR STATION
N/A    - NOT AVAILABLE


USA.gov is the U.S. government's official web portal to all federal, state and local government web resources and services.